[[{"header":{"parameterUnit":"m.s-1","parameterCategory":1,"la1":30.2991,"la2":30.254,"lo1":-89.0895,"lo2":-89.0444,"dy":0.0017,"dx":0.0017,"nx":28,"ny":28,"refTime":"2024-06-14T03:00:00:Z","depth":0,"parameterNumber":2,"parameterNumberName":"U-component_of_WINDS"},"data":[0,0,0,0,0,0,0,0,0,0,0,0,0,0,0,0,0,0,0,0,0,0,0,0,0,0,0,0,0,0,0,0,0,0,0,0,0,0,0,0,0,0,0,0,0,0,0,0,0,0,0,0,0,0,0,0,0,0,0.7704,0.7705,0,0.7759,0.7759,0.776,0.7778,0.7778,0.7777,0.7777,0.7833,0.7835,0.7837,0,0,0,0,0,0,0,0,0,0,0,0,0,0.7614,0.7616,0.7704,0.7705,0.7705,0.7759,0.7759,0.776,0.7778,0.7778,0.7777,0.7777,0.7833,0.7835,0.7837,0,0,0,0,0,0,0,0,0,0,0,0,0,0.766,0.7617,0.7704,0.7721,0.7723,0.7758,0.7759,0.776,0.7778,0.7778,0.7777,0.7777,0.7832,0.7835,0.7837,0.786,0,0,0.7845,0.7846,0,0,0,0,0,0,0,0,0.7657,0.7663,0.7718,0.772,0.7722,0.7761,0.7748,0.7794,0.7778,0.7757,0.7777,0.7777,0.781,0.7814,0.7825,0.7863,0.7865,0.7845,0.7847,0.7848,0.7849,0,0,0,0,0,0,0,0.7654,0.7661,0.7726,0.7718,0.7721,0.7725,0.7731,0.7757,0.7785,0.7759,0.776,0.7767,0.7811,0.7823,0.7827,0.7866,0.7845,0.7847,0.7849,0.785,0.7923,0.7924,0,0,0,0,0,0,0.7648,0.7658,0.7724,0.7727,0.7688,0.7727,0.7734,0.7749,0.7784,0.779,0.7767,0.7767,0.7818,0.7823,0.7829,0.7857,0.7848,0.785,0.7852,0.7923,0.7923,0.7924,0,0,0,0,0,0,0.7646,0.7654,0.7722,0.7693,0.7702,0.7729,0.7746,0.775,0.7762,0.779,0.7795,0.7774,0.7818,0.7825,0.7852,0.7859,0.7851,0.7854,0.7922,0.7923,0.7923,0.7914,0,0,0,0,0,0,0.7643,0.7653,0.7662,0.7693,0.7703,0.7744,0.7746,0.7752,0.7766,0.7767,0.7798,0.7803,0.7818,0.7848,0.7854,0.7862,0.7856,0.7922,0.7923,0.7923,0.7913,0.7914,0.7914,0,0,0,0,0,0.764,0.7658,0.7663,0.7671,0.7716,0.7745,0.7751,0.7768,0.7767,0.7776,0.7794,0.7802,0.7857,0.785,0.7858,0.7867,0.7921,0.7922,0.7923,0.7913,0.7914,0.7914,0,0,0,0,0,0,0.7628,0.7662,0.7668,0.7696,0.7717,0.7748,0.776,0.7768,0.779,0.779,0.7811,0.7818,0.7842,0.7857,0.7849,0.789,0.7889,0.7892,0.7879,0.788,0.788,0.7876,0.7858,0,0,0,0,0,0.7628,0.7649,0.7678,0.77,0.771,0.7733,0.7746,0.7758,0.778,0.779,0.781,0.7831,0.7853,0.7867,0.7889,0.7915,0.7922,0.7925,0.7925,0.7926,0.7927,0.7941,0.7943,0.7927,0.7927,0.7927,0,0,0.763,0.7651,0.7663,0.7698,0.7716,0.7736,0.7741,0.7763,0.7778,0.7793,0.7819,0.7834,0.786,0.7886,0.7898,0.7899,0.7933,0.7927,0.7927,0.7929,0.7942,0.7944,0.7945,0.7927,0.7927,0.7927,0,0,0.7643,0.7661,0.7681,0.7698,0.7724,0.7739,0.7744,0.7773,0.7783,0.781,0.7821,0.7839,0.7877,0.7894,0.7908,0.7925,0.7933,0.7932,0.7934,0.7947,0.7948,0.7949,0.7954,0.7956,0.7933,0.7933,0.7933,0,0.7641,0.7673,0.769,0.7711,0.7726,0.7739,0.7759,0.7775,0.7807,0.7817,0.7817,0.7863,0.7881,0.7911,0.7915,0.7926,0.7931,0.7929,0.7946,0.7948,0.7949,0.7954,0.7956,0.7933,0.7933,0.7933,0.7933,0,0.7669,0.769,0.7703,0.7733,0.7749,0.7769,0.7789,0.7803,0.7812,0.7827,0.7853,0.7875,0.7901,0.7909,0.7919,0.7939,0.7939,0.7942,0.7942,0.795,0.7955,0.7957,0.7932,0.7933,0.7933,0.7933,0,0,0.7677,0.7715,0.7719,0.7732,0.7762,0.7779,0.7799,0.7824,0.7835,0.7856,0.7873,0.7903,0.7906,0.7922,0.7933,0.7945,0.7956,0.7947,0.7948,0.7947,0.7979,0.7976,0.7978,0.7961,0.7961,0.7962,0.7977,0,0.7693,0.773,0.7745,0.7775,0.7794,0.7807,0.7824,0.7844,0.7857,0.7875,0.7891,0.7912,0.7914,0.7923,0.7935,0.7952,0.7962,0.7951,0.7976,0.7977,0.797,0.7981,0.7979,0.7992,0.7979,0.7979,0.7979,0,0.7718,0.7738,0.777,0.7795,0.7804,0.7819,0.7842,0.786,0.7881,0.789,0.7907,0.7917,0.7938,0.7936,0.7965,0.7957,0.7968,0.7977,0.7978,0.7981,0.7979,0.7984,0.7997,0.7998,0.7983,0.7983,0.7983,0,0.772,0.7755,0.7778,0.7789,0.7819,0.783,0.7843,0.7864,0.7877,0.7898,0.7906,0.7929,0.7941,0.7958,0.7973,0.7971,0.8,0.8,0.8008,0.8007,0.8014,0.8013,0.8028,0.8021,0.8021,0.8021,0.8021,0,0.7737,0.7755,0.7779,0.7793,0.7814,0.7831,0.7851,0.7864,0.7883,0.7899,0.7911,0.7927,0.7947,0.7964,0.7977,0.7998,0.8004,0.8011,0.8014,0.801,0.8009,0.8018,0.8017,0.8022,0.8021,0.8021,0.8021,0,0.7743,0.776,0.7785,0.7811,0.7818,0.7832,0.7854,0.7868,0.7881,0.7902,0.7908,0.7929,0.795,0.7967,0.7995,0.8004,0.8026,0.8029,0.8018,0.802,0.8027,0.8026,0.8047,0.8051,0.8042,0.8042,0.8042,0,0.7752,0.7766,0.7793,0.7805,0.7818,0.7837,0.785,0.7867,0.788,0.7905,0.7915,0.7937,0.7955,0.7988,0.8006,0.8027,0.8031,0.8037,0.8035,0.803,0.8031,0.803,0.8031,0.8038,0.8038,0.8038,0.8038,0,0.7767,0.7774,0.7793,0.7814,0.783,0.7847,0.7865,0.7874,0.7894,0.7908,0.793,0.7944,0.7971,0.7993,0.8015,0.8028,0.8036,0.8038,0.8041,0.8037,0.803,0.8034,0.8019,0.8038,0.8038,0.8038,0.8038,0.8038,0.7775,0.7788,0.7808,0.7828,0.7843,0.7859,0.7873,0.7888,0.7906,0.7929,0.7938,0.796,0.798,0.8011,0.8023,0.804,0.8041,0.8046,0.8047,0.8048,0.8047,0.8027,0.8045,0.8045,0.8045,0.8045,0.8045,0,0.779,0.7803,0.7822,0.7846,0.7861,0.7867,0.7886,0.7899,0.7918,0.7935,0.7953,0.7977,0.7997,0.8016,0.8037,0.8046,0.805,0.8051,0.8051,0.8053,0.8045,0.804,0.8048,0.8048,0.8048,0.8048,0.8048,0.8048,0.78,0.7821,0.783,0.7859,0.7872,0.7893,0.7904,0.7918,0.7933,0.7959,0.7975,0.7987,0.8005,0.8027,0.8045,0.805,0.8057,0.8057,0.8063,0.8055,0.8054,0.8054,0.8049,0.8059,0.8059,0.807,0.807,0.807]},{"header":{"parameterUnit":"m.s-1","parameterCategory":1,"la1":30.2991,"la2":30.254,"lo1":-89.0895,"lo2":-89.0444,"dy":0.0017,"dx":0.0017,"nx":28,"ny":28,"refTime":"2024-06-14T03:00:00:Z","depth":0,"parameterNumber":3,"parameterNumberName":"V-component_of_WINDS"},"data":[0,0,0,0,0,0,0,0,0,0,0,0,0,0,0,0,0,0,0,0,0,0,0,0,0,0,0,0,0,0,0,0,0,0,0,0,0,0,0,0,0,0,0,0,0,0,0,0,0,0,0,0,0,0,0,0,0,0,-0.3646,-0.3645,0,-0.3616,-0.3615,-0.3615,-0.3639,-0.364,-0.3641,-0.3642,-0.361,-0.3608,-0.3606,0,0,0,0,0,0,0,0,0,0,0,0,0,-0.3722,-0.372,-0.3646,-0.3645,-0.3645,-0.3616,-0.3615,-0.3615,-0.3639,-0.364,-0.3641,-0.3642,-0.361,-0.3608,-0.3606,0,0,0,0,0,0,0,0,0,0,0,0,0,-0.369,-0.372,-0.3646,-0.3653,-0.3654,-0.3616,-0.3615,-0.3615,-0.3639,-0.364,-0.3642,-0.3643,-0.3611,-0.3608,-0.3605,-0.3558,0,0,-0.3597,-0.3596,0,0,0,0,0,0,0,0,-0.3692,-0.3687,-0.3653,-0.3653,-0.3653,-0.3633,-0.363,-0.3596,-0.3638,-0.3644,-0.3642,-0.3644,-0.3616,-0.3613,-0.3604,-0.3557,-0.3555,-0.3597,-0.3595,-0.3594,-0.3593,0,0,0,0,0,0,0,-0.3694,-0.3689,-0.3634,-0.3652,-0.3652,-0.3658,-0.3655,-0.3624,-0.3622,-0.3644,-0.3646,-0.3642,-0.3616,-0.3606,-0.3603,-0.3555,-0.3597,-0.3595,-0.3593,-0.3592,-0.3467,-0.3465,0,0,0,0,0,0,-0.3696,-0.369,-0.3635,-0.3633,-0.3677,-0.3655,-0.3652,-0.3638,-0.3622,-0.3621,-0.364,-0.3643,-0.361,-0.3606,-0.3602,-0.3545,-0.3594,-0.3592,-0.359,-0.3469,-0.3467,-0.3465,0,0,0,0,0,0,-0.3697,-0.3691,-0.3636,-0.3662,-0.3656,-0.3652,-0.3636,-0.3636,-0.3626,-0.362,-0.3619,-0.3631,-0.3611,-0.3606,-0.3569,-0.3545,-0.359,-0.3588,-0.3471,-0.3468,-0.3466,-0.3431,0,0,0,0,0,0,-0.3699,-0.3691,-0.3673,-0.3662,-0.3654,-0.3603,-0.3634,-0.3635,-0.3622,-0.3625,-0.361,-0.361,-0.3612,-0.3573,-0.3566,-0.3542,-0.3586,-0.3473,-0.347,-0.3467,-0.3435,-0.3428,-0.3422,0,0,0,0,0,-0.3702,-0.3664,-0.3672,-0.3665,-0.3632,-0.3602,-0.3598,-0.3602,-0.362,-0.3602,-0.3597,-0.361,-0.3549,-0.3569,-0.3562,-0.3536,-0.3474,-0.347,-0.3467,-0.3437,-0.3429,-0.3422,0,0,0,0,0,0,-0.3672,-0.3663,-0.3671,-0.3629,-0.3616,-0.3606,-0.3583,-0.3593,-0.3575,-0.3578,-0.3584,-0.358,-0.3541,-0.3535,-0.3558,-0.3489,-0.3514,-0.3509,-0.3494,-0.3487,-0.3481,-0.3482,-0.3583,0,0,0,0,0,-0.3661,-0.3638,-0.3631,-0.3594,-0.3587,-0.3586,-0.3573,-0.3578,-0.3565,-0.3559,-0.3552,-0.3539,-0.3516,-0.3501,-0.348,-0.3434,-0.3431,-0.3413,-0.3407,-0.3402,-0.3397,-0.3372,-0.3363,-0.3452,-0.3452,-0.3453,0,0,-0.3636,-0.3629,-0.3614,-0.3588,-0.3578,-0.3554,-0.3581,-0.3555,-0.3536,-0.3555,-0.352,-0.3514,-0.3499,-0.3458,-0.3439,-0.3451,-0.3372,-0.3397,-0.3393,-0.3391,-0.3367,-0.3359,-0.3351,-0.345,-0.345,-0.3451,0,0,-0.358,-0.3572,-0.354,-0.353,-0.3516,-0.3516,-0.3509,-0.3497,-0.3495,-0.346,-0.3473,-0.3452,-0.3413,-0.3402,-0.3391,-0.3331,-0.3342,-0.3324,-0.3292,-0.3267,-0.326,-0.3254,-0.3232,-0.3224,-0.332,-0.332,-0.3319,0,-0.3551,-0.3515,-0.3522,-0.3494,-0.3482,-0.3499,-0.3467,-0.3457,-0.3437,-0.3428,-0.3442,-0.3395,-0.3386,-0.3342,-0.3327,-0.3318,-0.3309,-0.3325,-0.3261,-0.3255,-0.3249,-0.3228,-0.322,-0.3317,-0.3318,-0.3318,-0.3318,0,-0.3481,-0.3456,-0.3432,-0.3413,-0.3398,-0.3368,-0.337,-0.3354,-0.3361,-0.3359,-0.3323,-0.3313,-0.3291,-0.3281,-0.3286,-0.3237,-0.3245,-0.326,-0.3285,-0.3238,-0.3219,-0.3211,-0.3314,-0.3315,-0.3316,-0.3316,0,0,-0.3403,-0.3389,-0.338,-0.3371,-0.3357,-0.3338,-0.3309,-0.3288,-0.3274,-0.326,-0.3235,-0.3202,-0.3216,-0.3204,-0.3209,-0.3187,-0.314,-0.3205,-0.3205,-0.3192,-0.3085,-0.3073,-0.3064,-0.3148,-0.3146,-0.3145,-0.3086,0,-0.3345,-0.3295,-0.3301,-0.3252,-0.3229,-0.3246,-0.322,-0.3209,-0.3207,-0.3187,-0.3184,-0.3161,-0.3181,-0.3174,-0.3154,-0.315,-0.3118,-0.3155,-0.3124,-0.3123,-0.3126,-0.3054,-0.3041,-0.2985,-0.3078,-0.3077,-0.3076,0,-0.3271,-0.3254,-0.3204,-0.3194,-0.3185,-0.3162,-0.3143,-0.3124,-0.3111,-0.3111,-0.3098,-0.3106,-0.3077,-0.3104,-0.3063,-0.3087,-0.3076,-0.3072,-0.307,-0.3066,-0.3096,-0.3047,-0.2968,-0.2959,-0.3064,-0.3065,-0.3066,0,-0.3218,-0.3184,-0.3149,-0.3141,-0.3129,-0.3113,-0.3107,-0.3096,-0.3083,-0.3066,-0.3058,-0.3038,-0.3027,-0.3011,-0.3014,-0.3033,-0.2972,-0.2999,-0.297,-0.297,-0.2955,-0.2956,-0.2872,-0.2949,-0.295,-0.295,-0.295,0,-0.3152,-0.312,-0.3125,-0.3104,-0.3069,-0.3076,-0.3041,-0.3037,-0.3028,-0.3005,-0.3019,-0.2997,-0.3003,-0.2982,-0.2984,-0.2949,-0.2945,-0.2943,-0.2944,-0.2941,-0.2941,-0.2933,-0.2936,-0.2947,-0.2948,-0.2948,-0.2949,0,-0.3087,-0.3089,-0.3052,-0.3044,-0.3041,-0.3016,-0.3009,-0.2988,-0.2988,-0.296,-0.2954,-0.2952,-0.2928,-0.293,-0.2903,-0.2904,-0.2862,-0.2867,-0.2866,-0.2867,-0.2838,-0.284,-0.2744,-0.2732,-0.2818,-0.2817,-0.2817,0,-0.3044,-0.302,-0.301,-0.2996,-0.2989,-0.2967,-0.2954,-0.2961,-0.2946,-0.2931,-0.2912,-0.289,-0.2872,-0.2833,-0.2829,-0.2809,-0.2813,-0.2781,-0.281,-0.2808,-0.2812,-0.2813,-0.281,-0.2775,-0.2774,-0.2773,-0.2773,0,-0.2968,-0.297,-0.2951,-0.2933,-0.2917,-0.2902,-0.2889,-0.2877,-0.2882,-0.2866,-0.2842,-0.2828,-0.2801,-0.2778,-0.2758,-0.2752,-0.2763,-0.2764,-0.2756,-0.2753,-0.2752,-0.2751,-0.2849,-0.2766,-0.2766,-0.2767,-0.2767,-0.2768,-0.2912,-0.2892,-0.2881,-0.286,-0.2851,-0.2838,-0.2819,-0.2816,-0.2796,-0.2775,-0.278,-0.2753,-0.2741,-0.2716,-0.2708,-0.2687,-0.2698,-0.2687,-0.2684,-0.2681,-0.2677,-0.2757,-0.2683,-0.2684,-0.2684,-0.2684,-0.2684,0,-0.2836,-0.283,-0.281,-0.2792,-0.2775,-0.2788,-0.2774,-0.2759,-0.2735,-0.2724,-0.2706,-0.2679,-0.2657,-0.2652,-0.2631,-0.2615,-0.2619,-0.2609,-0.261,-0.2608,-0.2668,-0.2677,-0.2606,-0.2606,-0.2606,-0.2606,-0.2606,-0.2606,-0.2794,-0.276,-0.2761,-0.2723,-0.2718,-0.2691,-0.2682,-0.2671,-0.2662,-0.2631,-0.2613,-0.261,-0.2602,-0.258,-0.2561,-0.256,-0.2551,-0.2539,-0.254,-0.2596,-0.2604,-0.2611,-0.2619,-0.2537,-0.2537,-0.2481,-0.248,-0.248]}]]